Location: ??? ?????
(30.6482°N, 60.5850°E)
Time: 05:46:27
(UTC+00:00)

NOSS 3-4 (C) - Pass Details

Date: 09 April 2020
Orbit: 894 x 1319 km, 63.4° (Epoch: 01 June)

Event Time Altitude Azimuth Distance (km) Brightness Sun altitude
Rises 15:54:32 0° 334° (NNW) 3,923 7.4 -19.9°
Reaches altitude 10° 15:57:09 10° 337° (NNW) 3,022 6.7 -20.5°
Maximum altitude 16:04:25 66° 59° (ENE) 1,317 4.0 -21.9°
Enters shadow 16:07:41 37° 128° (SE) 1,831 4.4 -22.5°
